Greenwood, FL

3:12 PM CDT on September 28, 2016 (GMT -0500)
Marianna Municipal

Weather History for KMAI - August, 2013

Change the Weather History Date:

Thursday, August 15, 2013

  Actual Average Record
Temperature  
Mean Temperature 82 °F 82 °F  
Max Temperature 90 °F 91 °F 99 °F (2007)
Min Temperature 73 °F 72 °F 64 °F (2004)
Degree Days  
Heating Degree Days 0    
Month to date heating degree days 0  
Since 1 June heating degree days 0  
Since 1 July heating degree days 0  
Cooling Degree Days 17    
Month to date cooling degree days 279  
Year to date cooling degree days 1629  
Since 1 June cooling degree days 1193  
Growing Degree Days 30 (Base 50)    
Moisture  
Dew Point 73 °F    
Average Humidity 80    
Maximum Humidity 100    
Minimum Humidity 59    
Precipitation  
Precipitation 0.51 in 0.19 in 0.69 in (1997)
Month to date precipitation 1.44 3.05  
Year to date precipitation 37.89 35.95  
Sea Level Pressure  
Sea Level Pressure 29.95 in    
Wind  
Wind Speed 5 mph (SSW)    
Max Wind Speed 29 mph    
Max Gust Speed 36 mph    
Visibility 9 miles    
Events Fog , Rain , Thunderstorm    
T = Trace of Precipitation, MM = Missing Value Source: NWS Daily Summary

Daily Weather History Graph

Daily Weather History Graph

Search for Another Location

Airport or City:

Trip Planner

Search our weather history database for the weather conditions in past years. The results will help you decide how hot, cold, wet, or windy it might be!

Date:

Astronomy

Aug. 15, 2013 Rise Set
Actual Time 6:07 AM CDT 7:22 PM CDT
Civil Twilight 5:41 AM CDT 7:48 PM CDT
Nautical Twilight 5:11 AM CDT 8:18 PM CDT
Astronomical Twilight 4:40 AM CDT 8:49 PM CDT
Moon 2:32 PM CDT (8/15) 12:21 AM CDT (8/15)
Length of Visible Light 14h 06m
Length of Day
13h 15m
Waxing Gibbous, 64% of the Moon is Illuminated
Aug 15
Waxing Gibbous
Aug 20
Full
Aug 28
Last Quarter
Sep 5
New
Sep 12
First Quarter

Hourly Weather History & Observations

Time (CDT) Temp. Heat Index Dew Point Humidity Pressure Visibility Wind Dir Wind Speed Gust Speed Precip Events Conditions
12:29 AM 75.2 °F - 73.4 °F 94% 29.95 in 10.0 mi SE 4.6 mph - N/A   Scattered Clouds
12:38 AM 75.2 °F - 73.4 °F 94% 29.95 in 10.0 mi Calm Calm - N/A   Mostly Cloudy
12:46 AM 75.2 °F - 73.4 °F 94% 29.95 in 10.0 mi ESE 4.6 mph - N/A   Mostly Cloudy
12:53 AM 75.0 °F - 73.0 °F 94% 29.94 in 10.0 mi Variable 3.5 mph - N/A   Mostly Cloudy
1:42 AM 75.2 °F - 73.4 °F 94% 29.93 in 10.0 mi ESE 3.5 mph - N/A   Partly Cloudy
1:53 AM 75.0 °F - 73.0 °F 94% 29.93 in 10.0 mi Calm Calm - N/A   Partly Cloudy
2:53 AM 75.0 °F - 73.0 °F 94% 29.92 in 10.0 mi Calm Calm - N/A   Clear
3:53 AM 73.9 °F - 73.0 °F 97% 29.92 in 10.0 mi SE 3.5 mph - N/A   Clear
4:53 AM 73.9 °F - 73.0 °F 97% 29.92 in 10.0 mi Calm Calm - N/A   Clear
5:53 AM 73.9 °F - 72.0 °F 93% 29.93 in 10.0 mi Calm Calm - N/A   Scattered Clouds
6:02 AM 73.4 °F - 73.4 °F 100% 29.94 in 10.0 mi South 3.5 mph - N/A   Mostly Cloudy
6:53 AM 73.9 °F - 73.0 °F 97% 29.95 in 10.0 mi SSE 3.5 mph - N/A   Mostly Cloudy
7:13 AM 75.2 °F - 73.4 °F 94% 29.96 in 10.0 mi Calm Calm - N/A   Mostly Cloudy
7:53 AM 77.0 °F - 73.9 °F 90% 29.96 in 10.0 mi South 5.8 mph - N/A   Partly Cloudy
8:53 AM 80.1 °F 85.1 °F 75.0 °F 85% 29.96 in 10.0 mi SSE 4.6 mph - N/A   Mostly Cloudy
9:32 AM 78.8 °F - 73.4 °F 83% 29.99 in 1.5 mi WSW 24.2 mph 35.7 mph 0.12 in Rain Heavy Rain
9:40 AM 73.4 °F - 71.6 °F 94% 30.00 in 0.5 mi SW 16.1 mph 35.7 mph 0.39 in Fog , Rain , Thunderstorm Heavy Rain
9:48 AM 73.4 °F - 69.8 °F 88% 29.99 in 1.2 mi SSW 6.9 mph 23.0 mph 0.48 in Rain , Thunderstorm Heavy Thunderstorms and Rain
9:53 AM 73.0 °F - 70.0 °F 90% 29.98 in 2.5 mi SSW 9.2 mph - 0.49 in Rain , Thunderstorm Thunderstorms and Rain
10:00 AM 73.4 °F - 71.6 °F 94% 29.98 in 5.0 mi SSW 6.9 mph - 0.01 in Rain , Thunderstorm Thunderstorms and Rain
10:16 AM 75.2 °F - 71.6 °F 89% 29.99 in 10.0 mi WSW 3.5 mph - 0.01 in   Mostly Cloudy
10:53 AM 77.0 °F - 73.0 °F 88% 29.99 in 10.0 mi SSW 8.1 mph - 0.01 in   Partly Cloudy
11:53 AM 81.0 °F 86.2 °F 73.9 °F 79% 29.97 in 10.0 mi WSW 6.9 mph - 0.00 in   Partly Cloudy
12:53 PM 87.1 °F 95.4 °F 73.9 °F 65% 29.95 in 10.0 mi SW 8.1 mph - 0.00 in   Partly Cloudy
1:53 PM 87.1 °F 95.4 °F 73.9 °F 65% 29.93 in 10.0 mi SW 9.2 mph - N/A   Scattered Clouds
2:53 PM 88.0 °F 94.7 °F 72.0 °F 59% 29.91 in 10.0 mi SSW 8.1 mph - N/A   Scattered Clouds
3:53 PM 80.1 °F 85.4 °F 75.9 °F 87% 29.91 in 9.0 mi West 9.2 mph - 0.01 in Rain Light Rain
4:53 PM 86.0 °F 93.8 °F 73.9 °F 67% 29.90 in 10.0 mi West 5.8 mph - 0.00 in   Partly Cloudy
5:53 PM 84.0 °F 91.2 °F 73.9 °F 72% 29.91 in 10.0 mi SW 11.5 mph - N/A   Mostly Cloudy
6:53 PM 82.0 °F 87.9 °F 73.9 °F 76% 29.93 in 10.0 mi WNW 5.8 mph - N/A   Clear
7:53 PM 78.1 °F - 73.9 °F 87% 29.95 in 10.0 mi NNE 3.5 mph - N/A   Partly Cloudy
8:53 PM 78.1 °F - 73.9 °F 87% 29.96 in 10.0 mi Calm Calm - N/A   Partly Cloudy
9:53 PM 77.0 °F - 73.9 °F 90% 29.98 in 10.0 mi Calm Calm - N/A   Mostly Cloudy
10:53 PM 77.0 °F - 73.0 °F 88% 29.97 in 10.0 mi Calm Calm - N/A   Scattered Clouds